Jacksonville NAS, FL

6:52 AM EDT on May 28, 2017 (GMT -0400)
Jacksonville Naval Air Station

Weather History for KNIP - October, 2012

Change the Weather History Date:

Monday, October 8, 2012

  Actual Average Record
Temperature  
Mean Temperature 78 °F -  
Max Temperature 86 °F 80 °F 91 °F (2014)
Min Temperature 72 °F 67 °F 57 °F (2010)
Cooling Degree Days 14    
Growing Degree Days 28 (Base 50)    
Moisture  
Dew Point 73 °F    
Average Humidity 86    
Maximum Humidity 97    
Minimum Humidity 65    
Precipitation  
Precipitation 1.09 in - - ()
Sea Level Pressure  
Sea Level Pressure 30.00 in    
Wind  
Wind Speed 6 mph (WNW)    
Max Wind Speed 21 mph    
Max Gust Speed 29 mph    
Visibility 8 miles    
Events Fog , Rain , Thunderstorm    
Averages and records for this station are not official NWS values.
T = Trace of Precipitation, MM = Missing Value Source: NWS Daily Summary

Daily Weather History Graph

Daily Weather History Graph

Search for Another Location

Airport or City:

Trip Planner

Search our weather history database for the weather conditions in past years. The results will help you decide how hot, cold, wet, or windy it might be!

Date:

Astronomy

Oct. 08, 2012 Rise Set
Actual Time 7:24 AM EDT 7:03 PM EDT
Civil Twilight 7:00 AM EDT 7:27 PM EDT
Nautical Twilight 6:32 AM EDT 7:54 PM EDT
Astronomical Twilight 6:04 AM EDT 8:22 PM EDT
Moon 12:30 AM EDT (10/8) 2:25 PM EDT (10/8)
Length of Visible Light 12h 26m
Length of Day
11h 38m
Waning Gibbous, 46% of the Moon is Illuminated
Oct 8
Waning Gibbous
Oct 15
New
Oct 21
First Quarter
Oct 29
Full
Nov 6
Last Quarter

Hourly Weather History & Observations

Time (EDT) Temp. Heat Index Dew Point Humidity Pressure Visibility Wind Dir Wind Speed Gust Speed Precip Events Conditions
12:53 AM 80.1 °F 85.1 °F 75.0 °F 85% 29.98 in 10.0 mi SSW 3.5 mph - N/A   Clear
1:53 AM 78.1 °F - 73.9 °F 87% 29.98 in 10.0 mi NW 4.6 mph - N/A   Clear
2:53 AM 78.1 °F - 73.9 °F 87% 29.97 in 10.0 mi NNW 3.5 mph - N/A   Clear
3:53 AM 78.1 °F - 73.9 °F 87% 29.96 in 10.0 mi Calm Calm - N/A   Clear
4:53 AM 78.1 °F - 73.9 °F 87% 29.96 in 10.0 mi Calm Calm - N/A   Clear
5:53 AM 77.0 °F - 73.9 °F 90% 29.97 in 10.0 mi Calm Calm - N/A   Clear
6:53 AM 78.1 °F - 73.9 °F 87% 29.98 in 10.0 mi Calm Calm - N/A   Clear
7:53 AM 77.0 °F - 75.0 °F 94% 30.01 in 10.0 mi East 3.5 mph - N/A   Partly Cloudy
8:53 AM 78.1 °F - 75.0 °F 90% 30.02 in 10.0 mi Calm Calm - N/A   Clear
9:41 AM 80.6 °F 86.2 °F 75.2 °F 84% 30.04 in 10.0 mi Calm Calm - N/A   Mostly Cloudy
9:53 AM 80.1 °F 85.1 °F 75.0 °F 85% 30.04 in 10.0 mi Calm Calm - N/A   Mostly Cloudy
10:53 AM 81.0 °F 86.2 °F 73.9 °F 79% 30.04 in 10.0 mi SSE 3.5 mph - N/A   Clear
11:53 AM 82.0 °F 87.4 °F 73.0 °F 74% 30.03 in 10.0 mi South 6.9 mph - N/A   Overcast
12:53 PM 82.9 °F 88.8 °F 73.0 °F 72% 30.01 in 10.0 mi South 6.9 mph - N/A   Overcast
1:53 PM 84.9 °F 91.4 °F 73.0 °F 67% 29.97 in 10.0 mi South 6.9 mph - N/A   Clear
2:53 PM 84.9 °F 90.7 °F 72.0 °F 65% 29.96 in 10.0 mi South 9.2 mph - N/A   Scattered Clouds
3:53 PM 84.9 °F 90.7 °F 72.0 °F 65% 29.94 in 10.0 mi South 5.8 mph - N/A   Partly Cloudy
4:53 PM 84.0 °F 89.6 °F 72.0 °F 67% 29.94 in 10.0 mi West 5.8 mph - N/A Thunderstorm Thunderstorm
5:18 PM 82.4 °F 88.2 °F 73.4 °F 74% 29.97 in 10.0 mi West 5.8 mph - 0.00 in Rain , Thunderstorm Light Thunderstorms and Rain
5:35 PM 78.8 °F - 73.4 °F 83% 29.98 in 2.5 mi SW 19.6 mph 28.8 mph 0.18 in Rain Heavy Rain
5:37 PM 77.0 °F - 71.6 °F 83% 29.98 in 1.2 mi SW 18.4 mph 28.8 mph 0.30 in Rain Heavy Rain
5:40 PM 75.2 °F - 71.6 °F 89% 29.98 in 0.8 mi SW 20.7 mph 28.8 mph 0.49 in Rain , Thunderstorm Heavy Thunderstorms and Rain
5:44 PM 75.2 °F - 71.6 °F 89% 29.98 in 0.5 mi WSW 10.4 mph 25.3 mph 0.69 in Fog , Rain , Thunderstorm Heavy Thunderstorms and Rain
5:49 PM 75.2 °F - 71.6 °F 89% 29.99 in 0.8 mi West 11.5 mph - 0.80 in Rain , Thunderstorm Heavy Thunderstorms and Rain
5:53 PM 73.9 °F - 73.0 °F 97% 29.97 in 1.2 mi WSW 8.1 mph - 0.87 in Rain , Thunderstorm Heavy Thunderstorms and Rain
6:04 PM 75.2 °F - 73.4 °F 94% 29.98 in 2.0 mi WSW 8.1 mph - 0.17 in Rain , Thunderstorm Thunderstorms and Rain
6:13 PM 75.2 °F - 73.4 °F 94% 29.98 in 4.0 mi SW 6.9 mph - 0.22 in Rain , Thunderstorm Light Thunderstorms and Rain
6:41 PM 77.0 °F - 73.4 °F 89% 29.99 in 10.0 mi NNW 9.2 mph - 0.22 in Thunderstorm Thunderstorm
6:53 PM 77.0 °F - 73.0 °F 88% 29.98 in 10.0 mi North 11.5 mph - 0.22 in   Overcast
7:38 PM 77.0 °F - 73.4 °F 89% 30.00 in 10.0 mi North 12.7 mph - N/A   Overcast
7:50 PM 75.2 °F - 71.6 °F 89% 30.00 in 10.0 mi NNE 11.5 mph - N/A   Mostly Cloudy
7:53 PM 75.9 °F - 73.0 °F 91% 29.99 in 10.0 mi NNE 11.5 mph - N/A   Mostly Cloudy
8:53 PM 75.9 °F - 73.0 °F 91% 30.00 in 10.0 mi North 11.5 mph - N/A   Partly Cloudy
9:02 PM 75.2 °F - 73.4 °F 94% 30.02 in 10.0 mi North 11.5 mph - N/A   Mostly Cloudy
9:53 PM 75.9 °F - 73.0 °F 91% 30.02 in 10.0 mi NNE 9.2 mph - N/A   Overcast
10:53 PM 75.0 °F - 72.0 °F 90% 30.04 in 10.0 mi North 10.4 mph - N/A   Overcast
11:41 PM 73.4 °F - 71.6 °F 94% 30.06 in 9.0 mi North 16.1 mph - N/A   Overcast
11:46 PM 73.4 °F - 71.6 °F 94% 30.06 in 9.0 mi North 13.8 mph - N/A   Overcast
11:53 PM 72.0 °F - 70.0 °F 93% 30.05 in 8.0 mi North 15.0 mph - N/A   Overcast